Time,TemperatureF,DewpointF,PressureIn,WindDirection,WindDirectionDegrees,WindSpeedMPH,WindSpeedGustMPH,Humidity,HourlyPrecipIn,Conditions,Clouds,dailyrainin,SoftwareType,DateUTC
2013-01-21 00:00:00,38.8,32.8,30.53,SE,124,0.0,1.0,79,0.00,,,0.00,Wunderground v.1.15,2013-01-21 08:00:00,
2013-01-21 00:10:00,38.3,31.7,30.53,SE,124,0.0,0.0,77,0.00,,,0.00,Wunderground v.1.15,2013-01-21 08:10:00,
2013-01-21 00:20:00,38.0,31.7,30.53,SE,124,0.0,0.0,78,0.00,,,0.00,Wunderground v.1.15,2013-01-21 08:20:00,
2013-01-21 00:25:00,37.9,31.7,30.53,SE,124,0.0,0.0,78,0.00,,,0.00,Wunderground v.1.15,2013-01-21 08:25:00,
2013-01-21 00:35:00,37.9,31.7,30.53,ESE,123,0.0,0.0,78,0.00,,,0.00,Wunderground v.1.15,2013-01-21 08:35:00,
2013-01-21 00:40:00,37.9,31.3,30.52,SE,124,0.0,0.0,77,0.00,,,0.00,Wunderground v.1.15,2013-01-21 08:40:00,
2013-01-21 00:50:00,37.4,30.8,30.53,SE,124,0.0,0.0,77,0.00,,,0.00,Wunderground v.1.15,2013-01-21 08:50:00,
2013-01-21 01:00:00,37.7,31.1,30.52,SE,124,0.0,0.0,77,0.00,,,0.00,Wunderground v.1.15,2013-01-21 09:00:00,
2013-01-21 01:10:00,37.7,31.5,30.52,SE,124,0.0,0.0,78,0.00,,,0.00,Wunderground v.1.15,2013-01-21 09:10:00,
2013-01-21 01:15:00,37.8,31.9,30.52,SE,124,0.0,0.0,79,0.00,,,0.00,Wunderground v.1.15,2013-01-21 09:15:00,
2013-01-21 01:25:00,37.3,31.4,30.52,SE,124,0.0,0.0,79,0.00,,,0.00,Wunderground v.1.15,2013-01-21 09:25:00,
2013-01-21 01:30:00,36.8,30.9,30.52,SE,124,0.0,0.0,79,0.00,,,0.00,Wunderground v.1.15,2013-01-21 09:30:00,
2013-01-21 01:40:00,36.5,31.8,30.53,SE,124,0.0,0.0,83,0.00,,,0.00,Wunderground v.1.15,2013-01-21 09:40:00,
2013-01-21 01:45:00,36.5,31.8,30.53,SE,124,0.0,0.0,83,0.00,,,0.00,Wunderground v.1.15,2013-01-21 09:45:00,
2013-01-21 01:55:00,36.2,30.9,30.52,SE,124,0.0,0.0,81,0.00,,,0.00,Wunderground v.1.15,2013-01-21 09:55:00,
2013-01-21 02:00:00,36.1,31.1,30.53,SE,124,0.0,0.0,82,0.00,,,0.00,Wunderground v.1.15,2013-01-21 10:00:00,
2013-01-21 02:10:00,36.2,32.1,30.52,SE,124,0.0,0.0,85,0.00,,,0.00,Wunderground v.1.15,2013-01-21 10:10:00,
2013-01-21 02:20:00,36.5,32.1,30.53,SE,124,0.0,0.0,84,0.00,,,0.00,Wunderground v.1.15,2013-01-21 10:20:00,
2013-01-21 02:30:00,36.8,33.3,30.53,SE,124,0.0,0.0,87,0.00,,,0.00,Wunderground v.1.15,2013-01-21 10:30:00,
2013-01-21 02:35:00,36.9,33.4,30.52,ESE,122,0.0,0.0,87,0.00,,,0.00,Wunderground v.1.15,2013-01-21 10:35:00,
2013-01-21 02:45:00,36.4,32.6,30.52,SE,124,0.0,0.0,86,0.00,,,0.00,Wunderground v.1.15,2013-01-21 10:45:00,
2013-01-21 02:50:00,35.9,32.1,30.52,SE,124,0.0,0.0,86,0.00,,,0.00,Wunderground v.1.15,2013-01-21 10:50:00,
2013-01-21 03:00:00,35.2,31.7,30.52,ESE,122,0.0,0.0,87,0.00,,,0.00,Wunderground v.1.15,2013-01-21 11:00:00,
2013-01-21 03:10:00,35.6,32.7,30.52,ESE,117,0.0,0.0,89,0.00,,,0.00,Wunderground v.1.15,2013-01-21 11:10:00,
2013-01-21 03:20:00,35.7,32.5,30.52,ESE,120,0.0,0.0,88,0.00,,,0.00,Wunderground v.1.15,2013-01-21 11:20:00,
2013-01-21 03:30:00,35.3,32.1,30.51,ESE,120,0.0,0.0,88,0.00,,,0.00,Wunderground v.1.15,2013-01-21 11:30:00,
2013-01-21 03:35:00,35.3,32.1,30.51,ESE,120,0.0,0.0,88,0.00,,,0.00,Wunderground v.1.15,2013-01-21 11:35:00,
2013-01-21 03:45:00,35.2,32.0,30.51,ESE,120,0.0,0.0,88,0.00,,,0.00,Wunderground v.1.15,2013-01-21 11:45:00,
2013-01-21 03:50:00,35.1,31.9,30.52,ESE,120,0.0,0.0,88,0.00,,,0.00,Wunderground v.1.15,2013-01-21 11:50:00,
2013-01-21 04:00:00,34.3,31.1,30.52,ESE,120,0.0,0.0,88,0.00,,,0.00,Wunderground v.1.15,2013-01-21 12:00:00,
2013-01-21 04:05:00,34.4,31.8,30.51,ESE,120,0.0,0.0,90,0.00,,,0.00,Wunderground v.1.15,2013-01-21 12:05:00,
2013-01-21 04:15:00,34.6,31.7,30.52,ESE,120,0.0,0.0,89,0.00,,,0.00,Wunderground v.1.15,2013-01-21 12:15:00,
2013-01-21 04:20:00,34.4,31.8,30.52,ESE,120,0.0,0.0,90,0.00,,,0.00,Wunderground v.1.15,2013-01-21 12:20:00,
2013-01-21 04:25:00,34.5,31.9,30.51,ESE,120,0.0,0.0,90,0.00,,,0.00,Wunderground v.1.15,2013-01-21 12:25:00,
2013-01-21 04:35:00,34.4,31.8,30.51,ESE,120,0.0,0.0,90,0.00,,,0.00,Wunderground v.1.15,2013-01-21 12:35:00,
2013-01-21 04:40:00,34.1,31.5,30.51,ESE,120,0.0,0.0,90,0.00,,,0.00,Wunderground v.1.15,2013-01-21 12:40:00,
2013-01-21 04:50:00,34.1,31.7,30.51,ESE,120,0.0,0.0,91,0.00,,,0.00,Wunderground v.1.15,2013-01-21 12:50:00,
2013-01-21 04:55:00,33.9,31.3,30.51,ESE,120,0.0,0.0,90,0.00,,,0.00,Wunderground v.1.15,2013-01-21 12:55:00,
2013-01-21 05:05:00,33.8,31.5,30.51,ESE,120,0.0,0.0,91,0.00,,,0.00,Wunderground v.1.15,2013-01-21 13:05:00,
2013-01-21 05:15:00,34.1,32.0,30.51,ESE,120,0.0,0.0,92,0.00,,,0.00,Wunderground v.1.15,2013-01-21 13:15:00,
2013-01-21 05:25:00,34.0,31.9,30.50,ESE,120,0.0,0.0,92,0.00,,,0.00,Wunderground v.1.15,2013-01-21 13:25:00,
2013-01-21 05:30:00,33.9,31.8,30.50,ESE,120,0.0,0.0,92,0.00,,,0.00,Wunderground v.1.15,2013-01-21 13:30:00,
2013-01-21 05:40:00,33.1,31.0,30.50,ESE,120,0.0,0.0,92,0.00,,,0.00,Wunderground v.1.15,2013-01-21 13:40:00,
2013-01-21 05:45:00,33.0,30.9,30.50,ESE,120,0.0,0.0,92,0.00,,,0.00,Wunderground v.1.15,2013-01-21 13:45:00,
2013-01-21 05:55:00,32.9,31.1,30.50,ESE,120,0.0,0.0,93,0.00,,,0.00,Wunderground v.1.15,2013-01-21 13:55:00,
2013-01-21 06:00:00,33.1,31.3,30.50,ESE,120,0.0,0.0,93,0.00,,,0.00,Wunderground v.1.15,2013-01-21 14:00:00,
2013-01-21 06:10:00,33.0,31.2,30.50,ESE,120,0.0,0.0,93,0.00,,,0.00,Wunderground v.1.15,2013-01-21 14:10:00,
2013-01-21 06:15:00,32.9,31.1,30.50,ESE,120,0.0,0.0,93,0.00,,,0.00,Wunderground v.1.15,2013-01-21 14:15:00,
2013-01-21 06:20:00,33.3,31.8,30.50,ESE,120,0.0,0.0,94,0.00,,,0.00,Wunderground v.1.15,2013-01-21 14:20:00,
2013-01-21 06:25:00,33.3,31.8,30.50,ESE,120,0.0,0.0,94,0.00,,,0.00,Wunderground v.1.15,2013-01-21 14:25:00,
2013-01-21 06:35:00,32.8,31.0,30.50,ESE,120,0.0,0.0,93,0.00,,,0.00,Wunderground v.1.15,2013-01-21 14:35:00,
2013-01-21 06:45:00,33.1,31.6,30.50,ESE,120,0.0,0.0,94,0.00,,,0.00,Wunderground v.1.15,2013-01-21 14:45:00,
2013-01-21 06:55:00,32.8,31.3,30.50,ESE,120,0.0,0.0,94,0.00,,,0.00,Wunderground v.1.15,2013-01-21 14:55:00,
2013-01-21 07:00:00,32.6,31.1,30.51,ESE,120,0.0,0.0,94,0.00,,,0.00,Wunderground v.1.15,2013-01-21 15:00:00,
2013-01-21 07:10:00,32.9,31.6,30.51,ESE,120,0.0,0.0,95,0.00,,,0.00,Wunderground v.1.15,2013-01-21 15:10:00,
2013-01-21 07:20:00,33.6,32.3,30.50,ESE,120,0.0,0.0,95,0.00,,,0.00,Wunderground v.1.15,2013-01-21 15:20:00,
2013-01-21 07:30:00,33.3,31.8,30.51,ESE,120,0.0,0.0,94,0.00,,,0.00,Wunderground v.1.15,2013-01-21 15:30:00,
2013-01-21 07:40:00,33.1,31.6,30.51,ESE,120,0.0,0.0,94,0.00,,,0.00,Wunderground v.1.15,2013-01-21 15:40:00,
2013-01-21 07:50:00,33.6,32.3,30.51,ESE,120,0.0,0.0,95,0.00,,,0.00,Wunderground v.1.15,2013-01-21 15:50:00,
2013-01-21 08:00:00,35.8,34.5,30.51,ESE,120,0.0,0.0,95,0.00,,,0.00,Wunderground v.1.15,2013-01-21 16:00:00,
2013-01-21 08:10:00,36.6,34.8,30.52,ESE,112,0.0,0.0,93,0.00,,,0.00,Wunderground v.1.15,2013-01-21 16:10:00,
2013-01-21 08:20:00,37.4,35.0,30.52,ESE,112,0.0,0.0,91,0.00,,,0.00,Wunderground v.1.15,2013-01-21 16:20:00,
2013-01-21 08:25:00,37.9,35.5,30.52,ESE,112,0.0,0.0,91,0.00,,,0.00,Wunderground v.1.15,2013-01-21 16:25:00,
2013-01-21 08:30:00,38.6,35.6,30.52,ESE,112,0.0,0.0,89,0.00,,,0.00,Wunderground v.1.15,2013-01-21 16:30:00,
2013-01-21 08:40:00,37.9,34.9,30.52,ESE,112,0.0,0.0,89,0.00,,,0.00,Wunderground v.1.15,2013-01-21 16:40:00,
2013-01-21 08:50:00,38.4,35.4,30.53,East,83,0.0,0.0,89,0.00,,,0.00,Wunderground v.1.15,2013-01-21 16:50:00,
2013-01-21 09:00:00,39.4,35.9,30.52,East,84,0.0,0.0,87,0.00,,,0.00,Wunderground v.1.15,2013-01-21 17:00:00,
2013-01-21 09:10:00,40.9,37.3,30.53,East,84,0.0,0.0,87,0.00,,,0.00,Wunderground v.1.15,2013-01-21 17:10:00,
2013-01-21 09:15:00,41.8,37.6,30.52,South,172,0.0,1.0,85,0.00,,,0.00,Wunderground v.1.15,2013-01-21 17:15:00,
2013-01-21 09:20:00,41.3,36.5,30.52,SSW,211,0.0,0.0,83,0.00,,,0.00,Wunderground v.1.15,2013-01-21 17:20:00,
2013-01-21 09:30:00,41.5,37.3,30.53,SSW,211,0.0,0.0,85,0.00,,,0.00,Wunderground v.1.15,2013-01-21 17:30:00,
2013-01-21 09:35:00,42.5,38.0,30.53,SSW,203,0.0,0.0,84,0.00,,,0.00,Wunderground v.1.15,2013-01-21 17:35:00,
2013-01-21 09:45:00,44.0,37.9,30.53,SSW,203,0.0,0.0,79,0.00,,,0.00,Wunderground v.1.15,2013-01-21 17:45:00,
2013-01-21 09:55:00,44.0,36.9,30.53,West,274,0.0,1.0,76,0.00,,,0.00,Wunderground v.1.15,2013-01-21 17:55:00,
2013-01-21 10:00:00,42.8,37.4,30.53,North,355,1.0,2.0,81,0.00,,,0.00,Wunderground v.1.15,2013-01-21 18:00:00,
2013-01-21 10:10:00,43.7,38.6,30.53,West,262,0.0,1.0,82,0.00,,,0.00,Wunderground v.1.15,2013-01-21 18:10:00,
2013-01-21 10:25:00,43.6,38.5,30.53,WSW,257,0.0,1.0,82,0.00,,,0.00,Wunderground v.1.15,2013-01-21 18:25:00,
2013-01-21 10:30:00,43.5,38.4,30.53,West,276,1.0,1.0,82,0.00,,,0.00,Wunderground v.1.15,2013-01-21 18:30:00,
2013-01-21 10:40:00,44.3,38.5,30.53,WNW,283,0.0,0.0,80,0.00,,,0.00,Wunderground v.1.15,2013-01-21 18:40:00,
2013-01-21 10:45:00,45.5,38.7,30.53,SSW,212,1.0,1.0,77,0.00,,,0.00,Wunderground v.1.15,2013-01-21 18:45:00,
2013-01-21 10:55:00,46.5,37.6,30.53,West,266,1.0,1.0,71,0.00,,,0.00,Wunderground v.1.15,2013-01-21 18:55:00,
2013-01-21 11:00:00,46.9,37.6,30.53,WSW,255,1.0,1.0,70,0.00,,,0.00,Wunderground v.1.15,2013-01-21 19:00:00,
2013-01-21 11:10:00,48.0,37.2,30.52,West,259,1.0,1.0,66,0.00,,,0.00,Wunderground v.1.15,2013-01-21 19:10:00,
2013-01-21 11:15:00,48.8,37.2,30.52,WSW,257,1.0,1.0,64,0.00,,,0.00,Wunderground v.1.15,2013-01-21 19:15:00,
2013-01-21 11:20:00,49.1,38.6,30.52,West,263,1.0,1.0,67,0.00,,,0.00,Wunderground v.1.15,2013-01-21 19:20:00,
2013-01-21 11:30:00,49.3,38.8,30.52,West,278,1.0,1.0,67,0.00,,,0.00,Wunderground v.1.15,2013-01-21 19:30:00,
2013-01-21 11:35:00,49.6,39.5,30.51,West,274,1.0,1.0,68,0.00,,,0.00,Wunderground v.1.15,2013-01-21 19:35:00,
2013-01-21 11:40:00,50.1,39.6,30.51,West,274,0.0,0.0,67,0.00,,,0.00,Wunderground v.1.15,2013-01-21 19:40:00,
2013-01-21 11:50:00,51.5,40.1,30.50,SSW,210,1.0,1.0,65,0.00,,,0.00,Wunderground v.1.15,2013-01-21 19:50:00,
2013-01-21 11:55:00,51.7,39.9,30.50,WSW,257,1.0,1.0,64,0.00,,,0.00,Wunderground v.1.15,2013-01-21 19:55:00,
2013-01-21 12:00:00,51.6,39.4,30.50,WSW,255,1.0,1.0,63,0.00,,,0.00,Wunderground v.1.15,2013-01-21 20:00:00,
2013-01-21 12:10:00,53.1,40.8,30.49,West,271,1.0,1.0,63,0.00,,,0.00,Wunderground v.1.15,2013-01-21 20:10:00,
2013-01-21 12:20:00,54.2,39.3,30.49,SW,214,1.0,2.0,57,0.00,,,0.00,Wunderground v.1.15,2013-01-21 20:20:00,
2013-01-21 12:25:00,54.7,38.8,30.49,SW,236,2.0,2.0,55,0.00,,,0.00,Wunderground v.1.15,2013-01-21 20:25:00,
2013-01-21 12:35:00,54.7,37.4,30.48,West,263,2.0,2.0,52,0.00,,,0.00,Wunderground v.1.15,2013-01-21 20:35:00,
2013-01-21 12:40:00,54.9,37.6,30.48,West,271,2.0,2.0,52,0.00,,,0.00,Wunderground v.1.15,2013-01-21 20:40:00,
2013-01-21 12:50:00,56.0,38.1,30.48,SSW,211,2.0,2.0,51,0.00,,,0.00,Wunderground v.1.15,2013-01-21 20:50:00,
2013-01-21 13:00:00,57.9,40.4,30.48,West,267,1.0,1.0,52,0.00,,,0.00,Wunderground v.1.15,2013-01-21 21:00:00,
2013-01-21 13:10:00,59.8,36.6,30.47,North,8,1.0,1.0,42,0.00,,,0.00,Wunderground v.1.15,2013-01-21 21:10:00,
2013-01-21 13:15:00,60.4,40.6,30.47,North,355,1.0,2.0,48,0.00,,,0.00,Wunderground v.1.15,2013-01-21 21:15:00,
2013-01-21 13:25:00,60.5,40.7,30.46,WSW,251,1.0,1.0,48,0.00,,,0.00,Wunderground v.1.15,2013-01-21 21:25:00,
2013-01-21 13:30:00,60.4,41.1,30.46,SW,233,1.0,1.0,49,0.00,,,0.00,Wunderground v.1.15,2013-01-21 21:30:00,
2013-01-21 13:35:00,60.7,37.5,30.46,NNW,329,1.0,2.0,42,0.00,,,0.00,Wunderground v.1.15,2013-01-21 21:35:00,
2013-01-21 13:45:00,61.1,37.8,30.46,North,5,2.0,2.0,42,0.00,,,0.00,Wunderground v.1.15,2013-01-21 21:45:00,
2013-01-21 13:50:00,61.4,36.8,30.46,ESE,118,1.0,1.0,40,0.00,,,0.00,Wunderground v.1.15,2013-01-21 21:50:00,
2013-01-21 14:00:00,61.9,36.0,30.45,West,276,1.0,1.0,38,0.00,,,0.00,Wunderground v.1.15,2013-01-21 22:00:00,
2013-01-21 14:10:00,62.4,38.4,30.46,ESE,105,1.0,2.0,41,0.00,,,0.00,Wunderground v.1.15,2013-01-21 22:10:00,
2013-01-21 14:15:00,62.5,35.9,30.46,ESE,112,2.0,2.0,37,0.00,,,0.00,Wunderground v.1.15,2013-01-21 22:15:00,
2013-01-21 14:25:00,62.7,34.6,30.45,ESE,114,3.0,5.0,35,0.00,,,0.00,Wunderground v.1.15,2013-01-21 22:25:00,
2013-01-21 14:35:00,62.4,34.4,30.45,NE,51,4.0,4.0,35,0.00,,,0.00,Wunderground v.1.15,2013-01-21 22:35:00,
2013-01-21 14:40:00,62.3,35.0,30.45,NE,56,4.0,5.0,36,0.00,,,0.00,Wunderground v.1.15,2013-01-21 22:40:00,
2013-01-21 14:45:00,62.1,34.8,30.45,ENE,75,5.0,5.0,36,0.00,,,0.00,Wunderground v.1.15,2013-01-21 22:45:00,
2013-01-21 14:50:00,62.0,34.0,30.45,ENE,77,5.0,5.0,35,0.00,,,0.00,Wunderground v.1.15,2013-01-21 22:50:00,
2013-01-21 15:00:00,61.6,34.4,30.45,ENE,68,6.0,6.0,36,0.00,,,0.00,Wunderground v.1.15,2013-01-21 23:00:00,
2013-01-21 15:10:00,61.4,34.2,30.45,ENE,77,5.0,7.0,36,0.00,,,0.00,Wunderground v.1.15,2013-01-21 23:10:00,
2013-01-21 15:15:00,61.3,34.8,30.45,NE,51,6.0,7.0,37,0.00,,,0.00,Wunderground v.1.15,2013-01-21 23:15:00,
2013-01-21 15:20:00,61.2,34.0,30.45,ENE,63,6.0,6.0,36,0.00,,,0.00,Wunderground v.1.15,2013-01-21 23:20:00,
2013-01-21 15:30:00,61.2,34.7,30.45,ENE,66,4.0,5.0,37,0.00,,,0.00,Wunderground v.1.15,2013-01-21 23:30:00,
2013-01-21 15:35:00,61.2,34.7,30.45,ENE,65,4.0,5.0,37,0.00,,,0.00,Wunderground v.1.15,2013-01-21 23:35:00,
2013-01-21 15:40:00,61.1,34.6,30.45,NE,47,4.0,4.0,37,0.00,,,0.00,Wunderground v.1.15,2013-01-21 23:40:00,
2013-01-21 15:50:00,60.9,34.4,30.44,ENE,61,4.0,7.0,37,0.00,,,0.00,Wunderground v.1.15,2013-01-21 23:50:00,
2013-01-21 16:00:00,60.5,34.1,30.45,NE,44,5.0,5.0,37,0.00,,,0.00,Wunderground v.1.15,2013-01-22 00:00:00,
2013-01-21 16:10:00,59.9,34.2,30.45,ENE,75,5.0,5.0,38,0.00,,,0.00,Wunderground v.1.15,2013-01-22 00:10:00,
2013-01-21 16:15:00,59.6,33.9,30.45,ENE,77,4.0,9.0,38,0.00,,,0.00,Wunderground v.1.15,2013-01-22 00:15:00,
2013-01-21 16:25:00,59.2,34.2,30.44,East,83,4.0,5.0,39,0.00,,,0.00,Wunderground v.1.15,2013-01-22 00:25:00,
2013-01-21 16:30:00,59.1,34.1,30.44,East,90,5.0,5.0,39,0.00,,,0.00,Wunderground v.1.15,2013-01-22 00:30:00,
2013-01-21 16:40:00,59.1,34.1,30.44,East,96,5.0,5.0,39,0.00,,,0.00,Wunderground v.1.15,2013-01-22 00:40:00,
2013-01-21 16:45:00,59.0,34.1,30.44,East,82,4.0,5.0,39,0.00,,,0.00,Wunderground v.1.15,2013-01-22 00:45:00,
2013-01-21 16:50:00,58.6,33.7,30.44,East,80,3.0,3.0,39,0.00,,,0.00,Wunderground v.1.15,2013-01-22 00:50:00,
2013-01-21 17:00:00,57.9,33.7,30.44,ENE,64,3.0,4.0,40,0.00,,,0.00,Wunderground v.1.15,2013-01-22 01:00:00,
2013-01-21 17:10:00,57.2,33.1,30.44,ESE,114,3.0,3.0,40,0.00,,,0.00,Wunderground v.1.15,2013-01-22 01:10:00,
2013-01-21 17:15:00,56.8,33.3,30.44,NW,308,1.0,3.0,41,0.00,,,0.00,Wunderground v.1.15,2013-01-22 01:15:00,
2013-01-21 17:25:00,56.0,32.6,30.44,ENE,58,1.0,2.0,41,0.00,,,0.00,Wunderground v.1.15,2013-01-22 01:25:00,
2013-01-21 17:35:00,55.7,31.7,30.44,ENE,63,2.0,2.0,40,0.00,,,0.00,Wunderground v.1.15,2013-01-22 01:35:00,
2013-01-21 17:45:00,55.4,32.1,30.44,ENE,58,1.0,2.0,41,0.00,,,0.00,Wunderground v.1.15,2013-01-22 01:45:00,
2013-01-21 17:55:00,55.1,32.4,30.45,East,88,2.0,2.0,42,0.00,,,0.00,Wunderground v.1.15,2013-01-22 01:55:00,
2013-01-21 18:00:00,54.5,31.9,30.45,NE,56,2.0,2.0,42,0.00,,,0.00,Wunderground v.1.15,2013-01-22 02:00:00,
2013-01-21 18:10:00,54.3,31.1,30.45,ESE,109,1.0,1.0,41,0.00,,,0.00,Wunderground v.1.15,2013-01-22 02:10:00,
2013-01-21 18:20:00,53.4,30.3,30.45,ESE,108,0.0,0.0,41,0.00,,,0.00,Wunderground v.1.15,2013-01-22 02:20:00,
2013-01-21 18:30:00,52.7,29.6,30.45,ESE,108,0.0,0.0,41,0.00,,,0.00,Wunderground v.1.15,2013-01-22 02:30:00,
2013-01-21 18:35:00,52.0,29.6,30.45,ESE,107,0.0,1.0,42,0.00,,,0.00,Wunderground v.1.15,2013-01-22 02:35:00,
2013-01-21 18:45:00,52.0,29.6,30.45,East,89,0.0,1.0,42,0.00,,,0.00,Wunderground v.1.15,2013-01-22 02:45:00,
2013-01-21 18:50:00,52.1,29.7,30.45,East,89,0.0,0.0,42,0.00,,,0.00,Wunderground v.1.15,2013-01-22 02:50:00,
2013-01-21 18:55:00,52.0,30.2,30.45,East,89,0.0,0.0,43,0.00,,,0.00,Wunderground v.1.15,2013-01-22 02:55:00,
2013-01-21 19:00:00,51.5,30.8,30.45,West,281,1.0,1.0,45,0.00,,,0.00,Wunderground v.1.15,2013-01-22 03:00:00,
2013-01-21 19:10:00,50.2,32.3,30.45,WSW,257,0.0,1.0,50,0.00,,,0.00,Wunderground v.1.15,2013-01-22 03:10:00,
2013-01-21 19:15:00,49.7,32.8,30.46,WSW,257,0.0,1.0,52,0.00,,,0.00,Wunderground v.1.15,2013-01-22 03:15:00,
2013-01-21 19:20:00,49.1,33.2,30.46,WSW,258,0.0,0.0,54,0.00,,,0.00,Wunderground v.1.15,2013-01-22 03:20:00,
2013-01-21 19:25:00,48.8,33.3,30.46,West,263,0.0,1.0,55,0.00,,,0.00,Wunderground v.1.15,2013-01-22 03:25:00,
2013-01-21 19:35:00,49.2,33.7,30.46,West,262,1.0,1.0,55,0.00,,,0.00,Wunderground v.1.15,2013-01-22 03:35:00,
2013-01-21 19:45:00,48.5,33.5,30.46,West,263,0.0,1.0,56,0.00,,,0.00,Wunderground v.1.15,2013-01-22 03:45:00,
2013-01-21 19:50:00,48.0,33.9,30.46,West,262,0.0,1.0,58,0.00,,,0.00,Wunderground v.1.15,2013-01-22 03:50:00,
2013-01-21 20:00:00,46.8,34.5,30.46,West,262,0.0,0.0,62,0.00,,,0.00,Wunderground v.1.15,2013-01-22 04:00:00,
2013-01-21 20:10:00,46.1,33.0,30.47,North,10,1.0,1.0,60,0.00,,,0.00,Wunderground v.1.15,2013-01-22 04:10:00,
2013-01-21 20:15:00,46.4,33.7,30.47,North,10,1.0,1.0,61,0.00,,,0.00,Wunderground v.1.15,2013-01-22 04:15:00,
2013-01-21 20:25:00,46.0,34.5,30.48,North,10,0.0,0.0,64,0.00,,,0.00,Wunderground v.1.15,2013-01-22 04:25:00,
2013-01-21 20:35:00,45.6,35.3,30.48,North,10,0.0,0.0,67,0.00,,,0.00,Wunderground v.1.15,2013-01-22 04:35:00,
2013-01-21 20:40:00,45.5,35.5,30.48,North,10,0.0,1.0,68,0.00,,,0.00,Wunderground v.1.15,2013-01-22 04:40:00,
2013-01-21 20:50:00,44.6,35.1,30.48,North,11,0.0,0.0,69,0.00,,,0.00,Wunderground v.1.15,2013-01-22 04:50:00,
2013-01-21 21:00:00,44.0,35.2,30.48,North,11,0.0,0.0,71,0.00,,,0.00,Wunderground v.1.15,2013-01-22 05:00:00,
2013-01-21 21:05:00,43.9,35.5,30.48,North,11,0.0,1.0,72,0.00,,,0.00,Wunderground v.1.15,2013-01-22 05:05:00,
2013-01-21 21:10:00,44.3,35.5,30.48,North,11,1.0,1.0,71,0.00,,,0.00,Wunderground v.1.15,2013-01-22 05:10:00,
2013-01-21 21:15:00,44.6,35.8,30.48,North,11,1.0,1.0,71,0.00,,,0.00,Wunderground v.1.15,2013-01-22 05:15:00,
2013-01-21 21:20:00,44.6,36.1,30.48,North,10,0.0,0.0,72,0.00,,,0.00,Wunderground v.1.15,2013-01-22 05:20:00,
2013-01-21 21:25:00,44.3,35.8,30.48,North,11,0.0,0.0,72,0.00,,,0.00,Wunderground v.1.15,2013-01-22 05:25:00,
2013-01-21 21:35:00,43.7,35.6,30.49,North,8,0.0,0.0,73,0.00,,,0.00,Wunderground v.1.15,2013-01-22 05:35:00,
2013-01-21 21:45:00,44.0,36.2,30.49,NNE,29,1.0,1.0,74,0.00,,,0.00,Wunderground v.1.15,2013-01-22 05:45:00,
2013-01-21 21:55:00,43.4,35.3,30.49,NNE,29,0.0,0.0,73,0.00,,,0.00,Wunderground v.1.15,2013-01-22 05:55:00,
2013-01-21 22:00:00,43.0,36.0,30.49,NNE,29,0.0,0.0,76,0.00,,,0.00,Wunderground v.1.15,2013-01-22 06:00:00,
2013-01-21 22:05:00,42.7,36.0,30.49,NNE,27,0.0,0.0,77,0.00,,,0.00,Wunderground v.1.15,2013-01-22 06:05:00,
2013-01-21 22:15:00,42.1,35.4,30.49,NNE,29,0.0,0.0,77,0.00,,,0.00,Wunderground v.1.15,2013-01-22 06:15:00,
2013-01-21 22:25:00,41.3,35.0,30.50,NNE,29,0.0,0.0,78,0.00,,,0.00,Wunderground v.1.15,2013-01-22 06:25:00,
2013-01-21 22:30:00,41.3,34.6,30.50,NNE,31,0.0,1.0,77,0.00,,,0.00,Wunderground v.1.15,2013-01-22 06:30:00,
2013-01-21 22:35:00,41.5,34.8,30.50,NNE,31,1.0,1.0,77,0.00,,,0.00,Wunderground v.1.15,2013-01-22 06:35:00,
2013-01-21 22:45:00,42.0,35.3,30.50,NNE,31,0.0,1.0,77,0.00,,,0.00,Wunderground v.1.15,2013-01-22 06:45:00,
2013-01-21 22:55:00,42.0,35.3,30.50,NNE,31,0.0,0.0,77,0.00,,,0.00,Wunderground v.1.15,2013-01-22 06:55:00,
2013-01-21 23:00:00,41.8,35.1,30.50,NNE,31,0.0,0.0,77,0.00,,,0.00,Wunderground v.1.15,2013-01-22 07:00:00,
2013-01-21 23:10:00,41.1,34.4,30.49,NNE,31,0.0,0.0,77,0.00,,,0.00,Wunderground v.1.15,2013-01-22 07:10:00,
2013-01-21 23:20:00,40.3,34.3,30.49,NNE,32,0.0,0.0,79,0.00,,,0.00,Wunderground v.1.15,2013-01-22 07:20:00,
2013-01-21 23:30:00,40.3,34.6,30.49,NNE,31,0.0,0.0,80,0.00,,,0.00,Wunderground v.1.15,2013-01-22 07:30:00,
2013-01-21 23:40:00,40.6,35.2,30.49,NNE,30,0.0,0.0,81,0.00,,,0.00,Wunderground v.1.15,2013-01-22 07:40:00,
2013-01-21 23:50:00,40.8,35.4,30.49,NNE,30,0.0,0.0,81,0.00,,,0.00,Wunderground v.1.15,2013-01-22 07:50:00,
2013-01-21 23:55:00,40.8,35.4,30.48,NNE,30,0.0,0.0,81,0.00,,,0.00,Wunderground v.1.15,2013-01-22 07:55:00,